Theta_e
311 314 314 314 314 317 321 318 315 315 313 312 314 315 314 313 311 311 312 313 310 312 319 318 316 317 317 318 312 316 334 338 337 341 340 339 341 341 341 340 341 341 339 341 342 342 342 339 335 333 331 330 330 331 332 334 336 338 339 339 337 335 334 335 335 335 334 333 332 330 329 327 328 329 329 329 329 329 328 328 329 329 328 327 328 327
312 315 315 315 319 325 327 323 316 313 312 311 312 312 312 312 311 310 310 313 311 313 322 319 315 318 318 318 313 314 331 337 335 340 340 339 340 340 340 340 340 340 339 341 342 341 342 338 334 332 331 331 331 332 333 335 336 337 337 336 334 334 335 335 334 334 333 333 331 328 327 328 329 330 329 329 330 330 329 329 329 328 328 327 328 327
313 315 314 314 319 323 324 323 317 313 313 313 312 313 313 313 312 313 313 315 314 314 321 320 315 319 319 317 315 316 328 333 334 339 339 339 340 339 339 339 340 340 339 340 341 341 341 339 335 333 332 332 333 332 333 335 336 336 335 334 333 334 334 334 333 332 332 331 330 328 328 330 330 329 328 329 329 329 329 329 328 327 327 327 326 326
316 317 313 312 315 316 316 319 318 313 314 315 314 313 314 314 312 315 317 318 317 315 318 317 316 320 321 325 328 322 321 326 331 337 338 338 339 338 338 338 339 339 339 339 340 341 341 339 336 334 333 333 333 333 334 335 334 334 334 333 333 333 333 332 331 330 330 330 329 330 330 330 329 328 327 328 328 328 328 327 327 326 326 325 325 325
317 314 311 312 315 314 313 315 316 313 315 319 318 314 313 314 313 314 316 317 320 322 319 314 318 326 324 330 337 328 323 326 331 336 337 337 338 337 337 337 338 338 338 339 340 341 340 339 337 335 333 332 332 333 334 334 333 332 332 332 332 332 331 330 329 329 329 329 329 330 331 330 329 328 328 327 326 326 326 326 326 325 325 325 325 325
316 311 310 314 315 313 312 315 316 315 315 319 320 316 314 314 315 314 314 314 319 325 321 313 320 329 325 327 333 329 328 330 331 335 336 337 337 337 337 337 337 338 338 339 340 339 339 337 336 334 333 332 332 333 334 333 332 332 332 332 332 330 329 327 327 328 328 328 329 330 329 329 328 327 327 326 325 325 325 326 325 325 326 326 325 325
314 311 311 315 316 314 313 315 317 315 313 314 319 320 315 313 314 315 314 315 320 324 318 314 319 324 325 329 329 328 330 331 330 333 336 336 336 337 337 337 337 337 338 338 338 338 336 335 334 333 332 331 332 333 333 332 332 332 331 332 331 328 326 326 327 327 327 327 329 328 327 327 325 325 326 326 325 325 325 325 325 325 326 325 325 325
312 312 312 314 315 315 313 314 315 314 313 316 322 323 316 313 314 315 314 315 321 323 319 320 320 318 323 327 326 329 332 331 331 332 334 335 335 336 336 336 336 337 338 337 336 335 334 333 332 330 331 330 332 333 332 332 332 331 332 332 330 327 326 326 327 328 327 328 327 326 326 326 325 325 326 325 325 324 324 324 324 323 322 321 322 323
312 314 314 313 313 313 314 315 315 312 312 317 323 320 315 315 316 315 315 318 319 318 317 322 318 316 326 328 323 328 333 333 333 331 332 334 334 335 334 334 336 336 337 335 334 333 332 332 331 330 330 330 331 333 332 332 332 330 332 331 328 327 327 327 328 329 328 327 326 324 324 325 326 326 324 322 322 322 321 320 320 319 318 317 317 318
313 313 312 313 314 313 314 316 315 313 312 316 319 316 314 318 319 316 317 318 316 315 315 320 318 316 327 332 326 330 334 333 333 331 331 333 333 333 333 334 335 335 335 334 332 331 331 331 330 330 330 329 331 333 332 332 332 331 331 331 329 328 327 328 329 329 327 327 325 324 324 325 326 324 321 318 318 319 318 318 318 317 316 314 314 314
312 310 309 312 313 313 314 313 311 312 312 313 315 315 314 318 321 322 325 321 315 317 317 317 320 317 322 332 331 332 333 331 331 332 331 332 332 332 333 334 334 333 333 332 332 331 331 330 329 330 331 329 330 332 333 332 332 332 331 331 330 329 329 329 329 327 326 326 325 324 324 325 326 324 320 316 316 317 318 318 318 317 316 316 315 315
312 310 312 314 311 310 312 311 310 310 310 313 317 317 316 320 320 321 327 322 314 321 322 318 318 318 320 326 327 327 328 328 331 332 330 331 332 331 332 333 332 332 331 331 331 330 330 330 328 329 332 330 329 331 332 332 332 332 332 331 331 330 330 329 328 327 326 326 326 326 325 327 327 326 323 318 315 316 318 317 317 317 316 317 318 317
315 314 313 313 312 311 311 313 312 310 310 313 317 317 317 319 318 318 323 321 318 322 322 320 318 318 323 325 325 326 327 326 327 328 329 330 331 331 331 331 331 330 330 328 329 328 329 331 328 328 331 331 329 329 331 332 332 332 332 332 331 331 330 329 328 327 326 327 327 327 327 327 327 324 322 319 316 315 315 315 315 316 315 316 318 316
318 318 313 312 313 312 312 314 314 314 313 312 315 317 318 318 318 321 323 320 319 320 317 318 316 318 326 325 324 326 325 323 323 325 329 330 330 330 329 330 329 328 328 327 327 328 329 332 330 327 330 331 330 329 330 331 332 332 332 332 332 331 330 330 328 326 326 327 327 327 327 326 325 323 319 317 315 313 314 315 316 317 317 318 317 313
319 319 317 314 313 312 312 313 314 316 314 312 314 315 317 322 322 322 325 321 318 320 320 318 316 319 329 327 324 326 324 324 324 325 329 329 329 330 329 328 328 328 329 329 329 329 329 331 331 329 328 330 331 330 329 330 331 332 331 331 332 331 331 330 327 326 327 327 327 327 327 326 326 325 320 315 313 312 313 316 318 319 320 318 314 310
314 317 320 315 310 311 313 313 313 315 314 312 314 314 314 321 324 321 322 322 321 323 321 321 321 324 329 326 323 325 325 325 326 326 328 328 328 329 328 327 327 328 329 330 331 330 329 329 331 331 329 329 330 330 330 330 330 331 331 331 331 331 331 328 325 325 327 328 327 327 328 327 327 326 322 316 313 314 315 318 320 321 320 317 312 308
313 317 320 315 311 313 313 313 313 313 317 315 312 316 316 316 322 323 318 317 320 321 318 322 330 331 329 326 322 324 326 325 327 326 325 327 328 328 328 328 328 328 329 330 331 331 329 329 331 332 331 329 331 331 330 330 330 331 331 331 331 331 330 326 324 326 328 328 328 328 329 329 328 326 322 316 315 318 319 320 322 321 319 317 312 309
315 317 320 315 314 315 310 310 313 311 314 318 316 317 316 312 319 325 324 323 322 321 321 325 333 335 333 329 324 324 326 325 326 327 326 326 327 327 328 328 328 329 329 329 331 331 329 328 329 331 331 329 330 331 331 329 329 330 331 331 330 331 329 326 324 326 328 329 328 329 329 329 328 326 321 318 318 320 320 320 322 321 318 316 313 310
314 316 323 318 312 315 313 311 314 312 310 317 319 316 316 318 320 320 323 327 321 320 324 325 326 330 331 328 325 325 326 324 326 328 327 327 326 326 327 327 328 330 330 329 330 331 329 327 328 329 329 328 329 330 330 329 329 329 330 331 330 330 329 326 325 326 328 328 328 328 328 328 328 325 321 320 321 322 320 318 320 320 317 315 313 310
314 314 323 321 311 313 317 316 320 319 312 312 314 313 318 327 325 319 320 324 322 322 325 325 327 330 328 324 323 325 323 323 325 327 328 327 326 325 326 327 327 329 330 329 329 331 329 328 329 328 328 329 329 329 329 328 328 328 329 330 330 328 327 326 327 327 328 328 328 328 328 328 327 324 322 323 323 323 320 318 319 318 314 311 310 309
317 313 320 326 317 314 319 319 320 322 316 313 316 316 318 320 319 318 319 319 323 328 326 327 333 332 325 322 323 324 322 322 324 326 326 325 325 325 326 327 327 327 328 328 329 330 329 328 328 327 327 329 330 329 329 327 327 328 329 329 329 328 325 325 327 328 328 328 328 328 328 327 325 324 324 325 324 323 319 317 317 315 310 308 308 308
320 317 320 326 323 319 322 320 316 317 316 316 319 321 321 320 319 321 320 317 322 328 326 329 337 332 324 322 323 323 323 323 322 323 323 323 323 323 324 325 326 327 327 326 326 327 328 328 327 327 327 329 330 330 329 328 328 328 329 329 329 329 325 323 326 328 329 328 328 328 328 326 324 325 326 325 324 322 318 316 315 312 307 306 307 307
322 324 323 322 321 320 319 317 315 314 315 316 319 322 323 324 324 326 326 322 320 320 320 327 335 331 323 322 323 323 323 322 322 322 322 321 321 322 322 323 324 325 325 325 325 324 325 326 327 328 327 327 328 329 329 329 328 329 329 329 328 328 325 322 325 328 328 328 328 329 327 324 324 327 326 325 323 319 316 315 314 310 307 306 306 305
322 324 322 323 327 327 323 320 317 316 319 321 321 322 320 322 327 330 330 329 327 324 323 327 331 329 324 323 323 322 322 322 322 322 321 320 321 322 322 323 323 324 324 324 324 323 323 325 325 327 327 327 328 329 329 329 328 328 329 328 327 326 324 323 325 328 328 328 328 328 326 324 326 327 326 324 321 317 315 316 315 312 308 305 305 305
321 321 321 322 324 326 326 327 323 322 325 324 322 323 320 318 322 324 323 327 328 324 323 328 331 328 324 322 321 321 322 322 321 320 319 319 319 319 320 321 322 322 323 323 324 324 324 324 324 325 327 328 329 329 329 329 328 328 328 328 326 325 324 324 326 327 328 328 328 328 326 325 326 327 325 323 320 317 317 318 317 314 309 305 305 304
323 321 321 322 323 323 326 327 323 321 324 322 321 323 320 318 319 318 320 325 323 318 321 330 331 326 323 322 321 321 321 321 318 316 315 315 314 315 317 319 320 321 321 322 323 323 324 324 324 324 325 327 327 327 327 327 328 328 328 327 327 326 325 326 327 328 328 328 328 327 326 326 327 326 324 322 320 319 319 319 318 314 308 306 306 305
323 319 318 322 324 323 323 321 317 316 321 323 324 322 318 316 319 321 323 324 322 321 323 326 325 324 326 324 322 321 318 317 314 313 312 312 311 312 313 315 317 319 319 320 321 322 322 323 324 324 324 325 325 325 325 326 327 327 327 328 328 327 327 328 327 327 327 327 327 327 326 326 326 325 323 322 321 321 319 318 319 315 308 307 308 307
326 319 316 318 318 316 317 316 315 316 319 318 318 318 315 314 319 327 325 319 320 326 325 321 321 326 326 322 320 318 314 312 311 310 310 310 310 310 310 311 314 315 317 318 320 321 321 322 323 324 324 324 324 324 324 324 325 325 325 326 327 326 327 328 327 325 325 325 325 326 326 325 324 324 323 322 322 322 320 320 320 315 309 310 310 308
327 320 316 316 316 315 315 316 315 316 315 312 311 313 314 314 319 326 323 316 319 328 327 322 323 323 319 316 314 312 311 310 309 308 308 308 308 308 309 310 311 312 314 316 318 319 320 321 322 322 323 324 324 324 324 324 324 324 324 325 325 325 325 326 325 324 325 325 325 325 325 324 323 323 323 322 322 321 318 316 316 313 311 312 311 310
322 320 316 316 317 316 315 316 316 316 315 312 310 310 312 315 316 318 318 315 319 325 324 321 319 316 313 312 310 309 309 308 307 307 308 308 307 307 308 309 309 310 312 313 315 317 319 321 322 321 321 322 323 323 324 323 324 324 323 324 324 324 324 324 324 324 325 326 325 325 324 323 323 323 322 322 322 319 316 313 312 312 313 313 312 312
320 318 316 317 319 317 315 315 316 317 317 316 312 310 312 315 316 317 317 317 318 320 319 317 316 313 310 310 309 308 308 307 307 307 307 307 307 307 307 307 308 309 311 312 314 317 318 320 322 321 320 320 320 322 322 323 323 323 323 323 323 323 323 323 323 324 325 325 325 324 324 323 323 322 321 320 320 319 317 314 312 312 312 312 313 313
321 316 313 317 321 318 314 314 317 318 319 319 316 312 311 314 315 316 314 314 316 318 318 318 318 313 309 309 308 307 307 307 307 306 307 307 307 306 306 306 307 308 309 311 313 316 318 319 320 320 319 319 319 320 321 321 322 323 323 323 323 323 323 323 322 323 323 324 323 322 322 322 322 322 321 320 319 319 318 315 313 312 313 314 315 314
320 318 316 318 320 318 314 315 317 319 321 321 315 310 310 312 313 314 313 312 314 316 317 318 317 311 308 308 307 306 306 306 305 305 306 306 306 306 306 305 305 306 307 309 312 315 317 316 315 316 317 318 319 319 319 320 321 322 322 323 323 323 323 322 322 322 322 323 323 322 321 321 321 321 321 321 320 320 318 315 312 311 315 318 318 315
316 318 319 318 319 318 315 315 317 320 321 317 311 308 309 311 312 313 313 311 312 313 312 312 311 308 307 307 306 306 305 304 304 305 305 305 306 306 306 305 305 305 306 307 310 312 313 312 312 313 313 314 315 316 318 319 320 321 321 322 322 323 323 323 323 323 323 322 322 322 321 320 320 321 320 320 319 317 315 314 313 314 318 320 318 315
317 319 319 317 317 317 315 316 319 320 317 312 310 310 309 309 310 311 310 310 310 309 309 309 308 307 307 306 305 305 304 304 304 304 304 305 305 306 307 306 306 306 306 307 307 308 309 309 309 310 310 310 311 313 315 316 317 318 319 320 321 321 321 322 322 322 322 322 321 321 321 321 321 321 319 319 318 316 315 317 318 318 318 318 316 314
318 320 318 315 315 315 316 317 318 316 312 309 311 311 309 309 310 311 312 310 308 308 308 307 307 306 305 305 304 304 304 304 304 304 304 304 304 305 306 306 306 306 307 307 307 307 307 307 307 307 306 306 307 308 310 312 314 316 316 317 318 318 319 320 320 320 320 321 320 321 321 321 321 321 319 319 319 319 318 319 319 319 319 318 317 316
316 319 318 316 314 315 316 315 314 314 313 312 311 309 308 308 309 310 312 310 308 308 307 306 306 306 305 305 305 304 305 305 304 303 303 304 304 303 304 306 306 306 306 308 308 308 308 308 307 307 306 306 306 306 306 307 309 312 314 313 313 314 314 316 317 316 316 317 318 319 319 319 320 320 320 320 320 320 320 319 319 319 320 320 319 318
314 316 318 317 313 313 315 313 313 316 315 312 310 307 306 306 306 307 310 310 308 308 307 306 306 305 304 305 305 305 306 306 304 302 301 302 303 303 304 304 305 305 306 308 308 308 309 309 308 308 308 308 307 307 306 306 307 308 310 310 310 311 311 310 310 310 311 312 312 314 316 316 317 318 319 320 320 320 320 320 320 320 319 319 319 319
313 314 317 318 314 313 316 316 316 316 313 309 307 306 305 305 305 306 311 313 309 307 307 306 305 305 305 305 304 304 306 306 303 301 301 302 302 302 302 302 302 303 305 306 307 308 308 308 309 309 309 309 309 308 308 308 308 307 307 307 307 308 309 307 305 305 307 308 308 310 311 312 313 314 315 317 318 319 319 319 319 319 319 319 319 319
315 315 317 318 315 313 316 316 313 311 309 307 305 305 304 304 305 309 316 314 308 307 307 306 305 305 304 304 303 303 305 305 302 301 301 301 301 301 301 301 301 301 302 303 305 306 306 307 308 309 309 309 308 308 309 309 309 309 309 308 308 307 307 306 305 303 304 305 307 308 310 310 310 311 311 313 314 314 315 315 316 317 318 318 319 319
313 313 313 313 313 312 314 314 311 308 306 304 303 303 304 305 309 315 317 311 306 306 307 305 305 305 303 303 302 302 302 303 301 301 301 301 301 300 300 300 300 299 300 300 301 303 305 307 307 308 308 307 306 306 307 308 309 309 308 309 309 307 306 307 307 304 303 304 305 306 308 309 309 309 310 311 311 310 310 311 312 313 314 315 316 317
309 310 310 310 310 309 310 312 311 309 305 302 302 303 305 310 314 314 309 306 306 306 305 305 304 303 302 302 302 301 301 301 300 299 300 300 300 299 299 299 299 299 299 298 298 299 301 303 304 304 304 303 303 304 304 305 306 306 305 307 307 304 302 303 304 303 302 303 304 305 305 306 306 306 307 308 309 309 309 310 310 311 311 311 311 312
305 307 308 307 306 308 310 311 312 310 304 300 302 306 307 310 311 307 304 305 306 306 304 304 303 303 302 302 301 301 300 299 298 299 299 299 299 299 299 298 298 298 297 297 297 296 297 297 298 298 298 298 299 300 300 300 301 301 301 303 302 300 299 299 300 300 300 301 302 303 303 303 303 304 304 305 306 307 308 309 309 310 310 310 310 310
303 306 308 305 303 307 311 309 307 306 302 300 303 305 305 304 304 304 303 305 305 304 304 303 302 302 302 301 301 300 299 298 298 297 297 298 298 297 297 297 296 296 296 296 296 296 296 296 296 296 296 296 297 297 297 297 298 297 298 299 298 297 297 298 298 298 299 300 300 300 301 301 301 301 302 302 303 304 305 307 308 309 309 310 310 310
303 304 305 303 301 304 305 303 302 302 301 301 301 302 301 302 303 303 303 303 303 303 303 303 302 302 302 301 300 299 298 297 297 297 297 297 297 296 296 296 296 296 296 296 297 296 296 296 296 297 297 297 297 297 297 297 297 296 297 297 297 297 297 297 297 297 298 298 299 299 299 299 299 299 299 300 300 301 302 303 304 305 306 307 308 308
303 302 303 303 303 303 303 302 301 302 302 302 301 301 301 301 302 302 302 301 301 301 301 301 302 302 301 301 299 299 298 297 297 297 297 297 296 296 296 296 296 297 296 297 297 297 297 297 297 297 297 297 297 297 296 296 296 296 296 296 296 296 296 296 296 296 296 297 297 297 297 298 298 298 298 298 298 299 299 299 299 300 300 301 302 302
304 303 303 304 304 303 304 303 302 302 302 302 301 301 301 301 301 301 301 300 300 300 300 301 301 301 301 300 299 298 297 297 297 297 297 297 297 296 296 296 296 297 297 297 297 297 297 297 297 297 297 297 296 296 296 296 296 296 296 296 296 296 296 296 296 296 296 296 296 296 296 296 296 297 296 297 297 297 297 297 297 297 297 297 297 298
303 304 304 304 303 303 303 302 302 303 303 302 302 302 301 301 301 300 300 299 299 300 300 300 300 300 300 299 299 298 298 298 298 298 297 297 297 296 296 296 296 297 297 297 297 297 297 297 296 296 296 296 296 295 295 295 295 295 296 296 295 295 295 295 295 295 295 295 295 296 296 296 296 296 296 296 296 296 296 296 296 296 296 296 296 297
302 304 303 303 302 302 302 302 302 303 302 302 302 303 302 302 302 302 302 301 301 301 301 300 301 300 300 299 299 299 298 298 298 298 297 297 297 296 296 296 296 297 297 297 296 296 296 295 295 295 295 295 295 295 295 295 295 295 295 295 295 295 295 295 295 295 295 295 295 295 295 295 296 296 296 296 296 296 296 296 296 296 296 296 296 296
302 303 302 303 304 304 303 302 303 303 302 301 302 303 303 303 303 303 303 302 302 302 302 302 301 301 300 299 299 299 299 298 298 298 297 297 297 296 296 296 296 296 296 296 296 296 295 294 294 294 295 295 295 295 295 295 295 295 295 295 295 295 295 294 294 294 294 295 295 295 295 295 295 295 295 295 295 295 295 296 296 296 296 296 295 295
302 302 302 304 305 304 303 302 302 302 302 301 301 302 302 302 301 301 301 300 300 300 300 300 300 300 299 299 299 299 299 298 297 297 297 297 296 296 296 296 296 296 295 295 295 295 293 293 294 295 295 295 294 295 295 295 295 295 295 295 295 294 294 294 294 294 294 294 294 294 294 294 295 295 295 295 295 295 295 295 295 295 295 295 295 295
Wind_Speed
7 4 2 4 5 5 7 7 7 6 5 4 3 3 4 5 6 2 3 6 2 1 7 6 5 6 8 8 7 15 19 11 11 15 17 22 27 27 26 27 27 28 27 24 22 21 21 23 27 28 27 24 22 20 19 19 20 21 21 20 19 17 19 22 21 20 19 19 19 18 18 18 16 16 15 14 14 13 12 12 10 8 8 8 9 9
5 5 5 6 8 7 6 6 6 5 3 1 2 3 4 5 6 4 4 7 3 3 6 4 2 7 8 7 7 11 13 10 15 18 18 24 27 27 27 27 27 28 26 24 23 23 24 26 29 29 26 24 22 20 19 20 20 21 20 19 18 18 20 22 21 20 19 18 18 18 18 16 15 15 13 13 13 12 12 12 10 9 9 9 10 10
1 3 6 7 8 6 5 5 6 4 3 2 2 2 5 4 4 6 4 5 1 4 5 4 2 7 8 7 6 6 9 13 21 27 28 31 29 27 28 27 27 29 27 26 25 25 26 27 30 29 26 24 23 20 20 21 21 20 19 19 18 19 21 21 20 19 18 18 17 16 15 14 14 13 12 12 12 11 11 11 11 10 10 10 10 9
2 4 6 7 7 7 4 4 7 4 1 2 3 3 5 3 1 4 5 4 2 2 5 5 4 6 6 6 5 4 7 9 13 25 29 33 34 33 32 31 30 31 31 28 27 27 28 28 30 28 24 24 23 21 22 22 21 20 20 19 19 20 20 20 20 19 18 18 17 15 13 12 13 13 12 12 12 12 12 12 12 12 12 11 9 9
5 6 3 6 6 7 4 3 6 4 2 3 5 6 4 3 4 6 4 5 5 4 3 2 4 5 5 6 6 6 8 6 6 17 21 26 31 29 27 28 29 30 31 30 30 30 30 30 29 25 21 22 23 22 23 22 21 21 21 20 19 20 20 20 20 20 19 19 19 17 14 14 14 13 13 14 14 14 14 14 14 13 12 11 9 9
7 6 4 6 3 5 5 3 4 6 3 4 5 9 8 7 8 8 3 4 5 5 3 1 3 5 5 5 5 6 6 4 3 10 17 23 24 22 23 26 28 29 30 30 30 31 30 29 27 23 22 22 23 23 23 21 21 21 21 21 20 20 20 20 21 21 21 19 19 17 14 15 16 15 15 15 14 15 15 15 14 13 13 11 10 9
3 4 7 6 4 5 5 4 5 7 4 3 5 10 11 9 8 8 3 2 0 3 3 3 2 4 5 4 5 6 4 5 4 5 12 19 21 22 23 24 26 28 30 30 29 29 28 26 23 22 23 24 23 24 23 21 21 21 22 22 21 21 21 21 21 21 20 19 18 15 13 14 14 15 16 15 15 15 15 14 14 14 13 11 10 9
2 5 5 5 5 5 4 4 6 8 7 3 6 9 9 8 7 7 4 3 3 3 4 4 4 2 4 3 4 5 3 4 5 6 10 14 18 19 18 18 22 26 29 29 27 27 26 23 22 22 23 24 24 24 22 21 22 22 23 22 22 22 21 21 21 19 19 18 17 14 14 14 13 14 16 17 16 15 15 15 14 13 12 11 10 9
3 6 6 6 5 3 5 5 7 9 5 6 6 7 7 7 7 5 5 4 2 2 5 5 2 1 4 4 3 4 3 5 6 8 9 12 13 14 13 15 20 24 27 26 24 23 22 21 21 21 22 24 24 24 22 22 22 22 23 23 23 22 21 21 19 18 18 18 16 15 14 15 14 15 16 17 17 16 15 15 14 13 11 10 10 10
2 5 8 8 5 5 7 6 9 12 6 4 5 5 3 3 3 3 5 4 1 1 6 6 2 2 5 4 2 2 3 5 6 6 6 9 10 11 13 16 21 23 24 24 23 21 20 21 21 20 21 22 23 24 23 22 23 23 23 23 23 22 21 21 19 18 18 17 16 15 15 16 17 17 16 17 17 17 16 15 14 13 11 10 10 11
2 1 4 6 6 7 6 5 9 14 8 3 5 4 5 5 4 3 2 3 2 3 7 5 3 3 3 5 3 2 3 5 5 4 5 8 10 11 15 20 23 21 22 23 22 21 20 19 20 20 19 20 22 24 24 23 23 23 24 23 23 22 21 20 19 18 18 17 16 16 16 17 17 16 15 16 17 17 16 15 14 14 12 11 10 10
3 1 1 5 10 7 4 3 5 8 5 2 3 4 3 2 3 4 4 3 2 6 7 3 3 6 3 4 3 4 5 5 5 6 6 5 7 11 16 19 19 17 17 18 19 20 19 18 19 21 18 18 20 23 24 24 24 23 24 25 24 22 21 21 20 18 17 17 16 16 17 17 16 14 13 13 14 15 15 14 13 13 11 10 10 9
3 4 3 4 8 8 5 2 3 1 2 4 3 4 3 1 2 2 3 0 2 7 5 1 3 4 3 4 4 7 8 7 7 8 6 3 5 8 9 10 9 7 7 9 10 13 15 15 16 19 20 17 19 22 24 24 24 23 24 25 25 23 22 21 20 19 18 17 17 16 17 16 14 12 11 11 12 13 13 11 11 10 9 8 8 8
3 5 3 2 4 7 9 4 2 1 3 6 5 5 4 2 2 1 3 1 3 5 3 1 1 2 2 2 4 7 9 9 8 8 5 3 5 5 5 6 5 6 4 4 6 8 11 11 10 14 19 19 19 20 22 22 22 23 24 25 25 24 23 22 20 19 19 17 16 16 16 15 12 10 9 10 11 12 11 9 8 7 6 6 5 6
2 4 3 4 2 4 8 7 6 4 4 5 4 5 5 4 4 3 4 3 3 4 2 2 1 2 2 1 5 5 7 11 6 5 8 8 10 9 7 8 7 3 4 6 7 8 10 9 7 10 14 17 19 19 19 20 21 22 24 25 26 25 24 22 20 19 19 17 16 16 16 14 11 8 7 9 10 11 10 8 7 5 5 5 4 6
3 4 7 4 1 4 5 5 5 6 3 2 2 5 3 5 5 2 3 4 2 1 1 2 1 2 3 3 5 3 7 13 12 11 13 13 12 12 10 10 8 3 4 3 5 6 6 7 7 10 12 13 16 19 18 20 21 22 24 26 26 26 24 21 20 19 19 17 16 16 15 13 11 8 8 9 10 10 8 7 6 4 4 4 4 5
2 4 7 4 2 4 6 4 5 6 4 1 2 4 3 4 7 4 2 1 3 2 1 1 1 4 2 2 5 6 8 9 10 9 10 12 14 15 13 11 9 2 1 2 3 4 4 6 7 9 12 13 14 17 19 20 21 22 24 27 27 26 24 21 20 20 20 18 17 16 15 13 12 10 9 9 10 9 7 6 6 4 5 5 5 5
3 3 6 2 4 6 3 3 2 2 5 4 3 5 2 2 4 4 2 3 4 2 3 2 1 3 1 1 4 7 7 7 7 7 6 8 12 15 14 11 8 6 4 3 2 5 4 5 10 12 13 14 16 17 17 21 23 22 24 25 24 24 24 22 21 21 21 19 17 15 15 15 14 12 10 9 10 9 8 8 7 6 6 6 6 6
3 2 7 3 4 6 4 2 2 4 2 4 4 4 4 2 1 1 2 1 1 2 3 3 2 2 3 1 4 6 5 5 5 6 7 7 10 14 15 13 11 9 8 3 4 6 2 3 12 18 18 17 17 19 20 22 23 23 23 23 22 22 22 22 21 21 21 20 18 17 16 17 15 13 11 11 11 10 9 9 9 8 7 8 7 6
2 1 5 4 3 3 5 2 1 3 2 3 3 2 2 3 4 2 2 3 3 3 1 2 3 2 3 2 4 6 6 6 4 5 6 7 10 13 15 13 9 8 9 7 6 5 3 6 12 19 21 18 16 18 20 21 21 22 21 20 22 21 20 22 23 23 22 21 19 19 18 17 16 14 12 11 11 10 8 9 10 8 8 9 8 7
2 1 4 5 5 3 2 1 2 4 2 2 3 2 0 2 2 2 1 2 3 4 3 1 1 4 4 1 4 6 6 5 3 4 6 8 11 13 13 12 9 9 9 7 6 5 4 8 10 15 18 17 15 15 15 15 16 18 19 19 23 24 23 24 25 24 24 22 21 20 19 17 17 15 13 12 11 9 9 10 9 8 9 10 10 9
2 2 3 3 4 2 4 5 3 4 5 4 4 5 4 3 4 3 0 1 2 3 4 4 2 5 4 1 3 4 3 3 3 6 7 8 10 10 10 9 10 11 10 8 7 4 4 7 7 9 12 15 16 13 12 11 13 18 20 21 23 24 24 25 26 26 25 23 22 21 19 18 18 16 14 13 12 10 10 11 10 10 11 12 11 10
3 3 2 1 2 4 7 7 3 3 4 3 2 3 3 3 5 5 3 3 2 2 2 3 1 4 3 1 2 2 4 5 7 9 9 10 10 8 7 6 8 10 10 9 7 5 6 8 9 9 11 14 15 15 14 13 14 17 20 20 20 21 22 24 25 26 25 25 23 21 20 20 19 18 16 15 13 12 12 13 12 12 12 12 12 11
1 3 3 2 4 4 6 6 3 2 3 3 2 2 2 1 3 5 5 3 4 3 2 3 0 4 2 3 4 6 8 9 10 11 12 12 11 11 10 8 9 10 10 12 11 9 8 9 11 12 13 13 14 16 17 15 13 14 16 17 19 21 22 23 25 26 26 26 24 22 21 21 20 19 18 16 14 14 15 15 13 13 12 12 12 12
1 1 3 2 3 4 5 5 5 5 4 2 2 3 3 2 4 4 2 3 3 4 4 5 2 4 0 4 5 6 9 10 12 13 14 14 13 14 15 15 15 14 13 13 12 11 10 9 9 9 11 14 16 17 16 15 13 12 14 16 18 20 21 23 26 27 27 27 26 25 23 23 22 20 19 17 15 16 17 16 14 13 12 12 13 13
2 1 3 4 3 3 2 2 3 3 3 1 2 5 6 4 3 2 3 4 3 4 3 5 4 3 3 6 6 6 8 11 13 16 17 16 16 17 19 19 18 17 16 16 15 14 13 13 11 9 7 9 11 12 12 13 12 11 12 14 15 17 20 23 26 27 28 28 27 26 25 24 23 22 20 18 17 18 18 16 15 14 14 14 13 12
3 3 2 5 5 5 5 5 5 2 1 2 5 7 7 5 4 2 4 3 5 4 2 2 4 5 6 7 7 7 9 10 11 14 16 17 18 18 20 22 21 21 19 18 17 16 15 15 14 13 11 8 6 5 6 8 9 9 9 11 13 15 20 23 24 25 27 27 26 25 25 25 23 23 22 20 20 20 18 17 16 14 15 15 13 11
4 3 2 5 4 2 3 3 4 0 3 2 4 7 8 8 6 4 4 3 5 6 1 4 5 7 6 6 6 7 9 9 9 12 14 16 18 18 21 24 25 24 22 20 18 17 17 17 16 14 12 10 9 8 7 6 5 5 6 9 11 14 20 21 20 23 27 28 27 26 25 25 24 23 23 22 22 21 18 18 16 14 16 15 12 11
5 2 0 3 4 2 3 4 3 3 5 4 6 7 8 9 8 5 3 1 4 5 5 6 8 6 4 5 7 7 8 10 11 13 16 18 19 21 24 27 27 26 25 23 21 20 19 18 16 15 15 13 12 11 10 9 8 7 6 4 6 11 16 15 15 22 28 28 27 26 25 26 26 25 23 22 23 23 20 18 16 14 15 14 11 12
4 2 1 2 3 4 6 6 5 4 4 4 7 8 7 7 8 8 4 3 4 5 7 10 10 6 4 4 6 8 11 16 18 19 20 21 22 25 29 30 28 28 27 26 23 22 21 19 15 15 18 18 17 15 13 12 11 11 9 8 7 5 8 9 14 22 27 26 26 26 27 27 26 25 23 22 23 22 20 19 17 15 14 14 14 15
3 2 1 3 3 4 7 6 6 5 6 6 8 10 9 8 8 7 5 5 5 6 9 11 9 5 4 5 8 9 13 19 21 19 20 21 22 25 28 29 28 27 27 26 24 23 21 18 14 13 17 20 20 19 17 15 15 14 12 11 11 9 8 9 12 18 21 23 25 25 26 28 27 25 24 23 23 22 21 22 22 19 17 16 17 18
3 2 1 3 3 2 5 5 6 4 5 6 8 10 10 7 5 4 3 3 2 4 10 9 5 2 3 6 9 10 13 18 18 17 19 20 21 23 24 26 28 28 27 27 26 23 20 18 15 14 15 18 19 20 19 17 17 16 15 13 11 11 10 9 9 10 12 15 17 18 21 25 27 27 26 24 24 23 23 23 23 21 18 18 18 18
3 4 2 2 2 1 3 4 4 3 3 2 4 5 6 4 1 2 3 5 4 3 6 5 4 6 6 7 9 10 11 14 16 16 17 18 21 23 23 23 27 29 29 29 28 24 21 21 21 20 19 18 18 19 20 19 18 17 15 13 11 11 10 9 9 8 7 8 9 10 14 20 23 24 25 23 22 22 23 24 24 22 19 18 18 17
3 4 3 2 2 1 3 4 3 1 1 1 2 2 3 2 3 5 4 5 5 5 5 4 6 8 7 7 9 10 10 13 16 17 18 20 23 26 26 24 26 30 32 32 31 28 25 25 25 24 23 23 21 20 19 19 19 18 17 14 12 12 11 9 8 8 7 7 6 6 9 14 18 19 20 20 19 19 20 22 23 21 19 18 18 18
4 4 2 2 2 2 1 3 2 2 1 1 1 2 1 2 5 8 8 8 7 8 10 10 9 8 9 11 14 16 17 18 19 18 18 19 21 25 26 26 26 28 31 32 32 31 29 28 27 26 26 26 25 23 21 20 19 19 19 18 16 14 13 11 9 8 6 6 6 6 6 10 12 12 13 16 18 18 18 19 20 20 19 18 18 20
6 4 2 2 2 2 1 2 2 1 1 0 1 2 1 1 2 5 7 8 7 5 8 11 9 10 13 15 17 20 22 23 22 19 17 17 18 21 23 24 23 25 27 28 28 28 28 28 28 28 28 28 28 27 26 24 21 19 20 21 20 18 17 15 13 12 10 8 7 5 5 5 7 7 9 14 17 17 18 18 19 20 19 19 19 20
6 5 3 2 1 2 2 2 1 0 0 1 2 2 1 1 2 0 3 4 4 3 5 10 11 10 12 15 19 20 22 22 19 15 15 16 16 17 19 20 20 20 23 24 24 24 24 24 24 24 25 26 28 28 27 27 25 23 21 21 22 22 22 20 18 17 16 14 12 10 8 6 4 5 7 11 13 14 16 18 19 19 19 18 18 18
5 4 4 3 1 2 3 2 1 0 1 1 1 2 2 3 4 3 1 2 3 4 6 9 10 10 11 14 16 15 15 14 8 6 11 15 14 15 17 18 17 17 18 20 20 20 20 20 19 19 19 22 24 23 23 23 23 24 24 23 22 22 23 23 22 20 19 18 16 14 12 11 10 9 8 8 8 9 11 15 17 17 17 17 18 18
7 4 4 4 2 2 4 3 1 1 1 1 2 5 7 6 4 2 2 2 2 7 10 10 10 11 13 14 11 8 7 6 1 2 10 15 14 15 17 17 18 18 17 17 16 16 16 16 15 16 16 17 19 18 16 16 17 21 22 21 20 20 21 22 21 19 17 16 16 15 13 12 12 12 12 11 9 7 7 9 11 12 12 14 16 17
7 5 4 4 3 2 3 2 1 1 0 1 3 8 11 7 1 3 2 0 4 10 14 14 13 13 14 13 8 3 2 4 6 7 11 14 14 16 17 17 18 18 17 16 14 12 11 11 11 12 13 14 14 13 12 11 11 13 15 15 14 16 18 17 17 16 15 13 12 12 11 10 11 11 11 11 9 7 6 5 5 5 6 7 10 12
4 3 2 3 3 3 3 3 1 1 1 2 7 13 13 5 2 3 1 5 9 14 16 17 17 15 11 9 8 7 8 14 17 15 14 15 15 16 16 16 16 17 17 16 14 11 9 8 8 9 10 11 11 10 9 8 6 8 10 8 7 11 14 13 11 11 12 10 9 8 7 7 7 7 6 6 5 5 4 4 4 3 2 1 3 5
3 3 3 2 2 2 3 3 1 1 1 6 13 14 8 1 1 1 2 10 17 19 19 19 18 13 10 13 18 21 22 22 22 19 17 17 17 16 16 14 14 14 14 14 13 12 10 10 10 10 11 11 11 10 10 8 7 8 9 7 8 12 14 12 10 10 10 10 9 8 7 6 6 5 4 3 2 1 1 1 2 1 1 1 1 1
1 1 2 2 1 2 3 3 2 2 3 13 15 8 3 2 1 3 8 15 21 22 21 18 13 13 18 24 27 27 26 24 23 22 20 19 17 16 14 12 11 11 11 10 11 10 9 10 11 11 12 12 11 10 10 9 9 10 9 9 11 13 13 12 11 11 10 10 10 9 9 8 8 8 7 6 5 4 4 4 3 3 3 3 3 4
2 1 1 1 1 2 2 2 1 1 8 13 9 2 3 4 1 7 11 16 20 21 20 16 13 18 27 31 29 27 26 25 24 22 20 19 17 15 13 11 10 10 10 10 11 10 9 10 11 11 11 11 11 10 10 10 11 11 10 10 12 12 11 11 11 11 10 10 10 10 9 9 10 10 10 10 10 9 9 9 9 8 8 8 9 10
2 2 4 2 2 4 4 2 2 4 9 10 9 10 11 10 8 10 14 17 18 17 17 18 21 24 28 30 30 28 27 25 23 21 20 19 16 14 12 11 10 10 10 10 11 11 10 11 11 11 11 11 11 11 11 11 11 11 11 11 11 11 11 10 10 10 10 11 11 11 11 11 11 11 11 11 12 12 12 12 12 13 13 13 14 15
0 2 3 3 3 5 7 8 6 7 11 13 15 17 18 18 16 16 18 19 18 16 17 22 26 27 26 28 29 28 25 24 23 21 19 17 15 13 12 11 11 10 9 10 11 11 11 11 10 11 11 12 11 12 12 12 11 11 11 11 11 11 11 12 11 11 11 11 11 11 12 12 12 13 13 13 14 14 14 14 14 14 14 14 15 15
2 3 3 3 2 2 4 6 6 8 11 14 18 20 22 23 22 22 23 23 21 20 21 23 26 26 25 25 25 25 23 21 20 19 17 15 14 12 11 11 10 9 9 10 11 11 11 11 10 11 12 12 12 12 13 13 13 12 12 12 11 11 11 11 11 11 11 10 10 10 10 10 11 12 12 12 13 13 14 14 14 15 15 15 15 15
2 4 4 3 3 3 3 2 6 12 14 15 18 21 23 25 26 26 27 27 26 25 24 23 23 23 21 20 20 20 19 17 16 17 15 13 12 11 11 11 10 10 10 11 10 9 10 11 11 12 13 13 13 13 14 14 14 13 13 12 12 12 12 11 11 11 12 11 11 11 10 9 9 9 9 10 10 11 12 12 13 14 15 16 17 17
2 2 2 3 4 5 4 4 8 12 13 13 18 21 21 23 25 24 23 23 23 23 23 20 19 17 16 15 13 13 15 15 13 12 12 11 9 9 9 10 10 10 10 10 9 9 11 12 13 14 14 14 13 13 14 15 14 13 13 13 13 13 13 13 13 13 12 12 12 12 11 10 9 9 8 8 8 8 9 10 10 11 12 14 16 16
3 2 3 4 4 2 2 5 6 6 5 7 14 18 17 17 18 18 17 17 17 16 14 13 12 12 12 11 9 8 11 13 11 10 9 8 7 7 8 8 8 8 9 9 9 10 12 14 14 14 14 13 12 13 13 14 14 14 14 14 14 14 14 13 13 12 12 11 11 10 10 9 9 8 8 8 8 7 7 8 9 10 10 10 12 13
2 3 2 4 4 2 5 8 8 8 8 9 13 16 16 15 16 17 17 17 16 14 12 10 11 12 13 11 9 7 9 10 9 7 6 6 5 6 6 6 6 6 7 8 9 11 12 13 13 13 12 11 11 12 13 13 14 14 14 14 14 14 13 12 11 10 10 10 10 10 10 10 10 10 10 10 11 11 10 10 9 10 11 12 12 13
Wind_Direction
155 156 196 200 183 173 204 196 179 175 143 130 162 191 219 249 267 239 244 263 194 31 288 260 247 262 264 268 243 214 212 197 150 160 170 171 179 188 194 201 202 204 209 206 202 204 208 210 206 205 207 209 211 211 212 213 209 205 203 205 202 191 186 186 186 186 185 183 181 181 181 179 177 181 185 184 185 187 185 186 190 200 214 220 219 215
134 182 220 191 181 180 189 180 155 147 138 130 207 253 264 241 261 264 246 260 198 151 265 267 276 274 265 264 247 213 206 195 176 172 175 180 185 191 196 199 200 204 207 204 203 207 210 209 206 207 209 212 214 210 208 208 204 202 202 203 200 189 184 185 184 184 185 184 184 183 178 174 175 178 182 185 188 188 184 186 194 206 213 213 210 205
118 224 214 187 182 152 109 118 129 139 157 158 183 246 266 252 285 289 272 279 160 146 258 300 313 275 280 281 265 222 214 216 196 185 185 187 187 193 197 196 197 202 204 204 206 210 211 209 209 211 212 215 215 210 207 203 200 200 199 199 194 185 182 181 181 182 184 184 183 180 174 171 172 172 174 181 189 192 189 190 192 196 198 197 198 194
207 240 211 182 161 132 110 118 119 114 148 169 182 215 259 266 320 285 291 319 321 224 255 288 304 283 306 320 305 292 285 274 214 195 193 192 193 197 198 195 195 198 201 202 205 210 212 211 213 216 215 217 215 209 205 198 194 196 196 196 189 181 179 178 179 181 182 181 177 173 170 170 171 172 176 179 183 185 186 186 183 181 184 187 190 189
225 236 176 124 134 157 179 158 131 148 260 248 213 208 234 249 219 228 278 329 325 311 246 250 328 305 332 349 328 327 324 315 201 191 196 200 202 202 199 198 198 199 199 200 203 209 213 212 215 217 213 217 214 203 200 193 190 195 193 192 187 179 178 179 180 180 179 179 177 174 172 173 176 179 182 180 176 177 179 179 176 175 179 182 183 183
249 237 157 109 111 160 174 207 182 176 221 282 235 207 210 225 231 237 278 360 356 334 289 76 15 299 318 350 321 329 342 326 202 188 195 201 204 202 199 198 199 200 199 202 205 208 213 212 215 215 208 214 212 198 194 190 189 195 191 187 183 179 179 179 179 178 178 180 181 183 181 180 182 182 182 183 179 178 177 175 174 176 177 177 176 176
253 201 167 154 149 148 162 236 226 171 164 276 240 202 205 216 231 245 240 99 79 268 290 46 104 263 307 351 323 321 329 313 288 222 202 200 202 202 202 199 196 199 200 205 209 210 213 210 210 212 206 211 209 196 191 188 189 194 190 184 181 180 180 179 179 178 179 181 183 187 190 188 187 184 180 180 181 179 176 173 173 175 173 171 171 172
169 152 157 151 144 143 164 238 222 159 140 247 229 179 184 204 220 231 190 166 235 262 318 18 117 227 295 301 296 299 300 304 273 233 211 206 206 204 204 198 195 199 202 206 208 209 211 205 204 208 205 209 207 196 192 187 188 192 188 183 182 181 181 180 179 180 181 182 184 187 190 190 187 184 179 176 178 177 173 171 170 170 169 168 169 175
150 159 173 152 141 167 197 210 184 156 162 245 215 163 169 185 196 191 155 190 254 357 310 309 114 181 280 270 299 319 300 284 254 233 217 211 210 205 199 192 195 202 204 205 204 205 204 200 202 204 205 208 204 197 194 187 188 191 188 184 182 183 183 182 182 182 182 184 187 188 188 186 181 181 180 175 174 173 170 170 167 163 163 165 173 181
181 186 182 152 152 203 214 203 165 168 204 229 166 137 111 97 117 131 136 167 86 39 262 265 171 185 279 279 287 318 290 269 253 239 222 213 205 195 188 189 196 201 203 202 202 202 199 198 200 199 205 209 202 199 197 191 190 190 189 186 184 184 185 184 185 184 185 187 189 188 187 186 180 179 179 174 172 171 169 170 166 160 157 156 166 177
301 200 165 155 190 205 198 193 179 186 197 137 116 102 64 42 42 63 81 102 104 260 259 255 187 170 274 284 245 210 258 276 274 267 235 216 204 191 187 192 198 199 199 199 199 199 195 198 198 192 204 211 203 203 201 195 195 192 190 189 186 187 187 186 188 188 188 188 187 187 187 188 185 184 183 177 174 173 171 172 168 164 162 154 152 165
340 53 178 215 221 205 162 196 215 208 198 108 81 90 83 353 17 32 2 50 141 251 264 263 166 146 182 272 278 274 279 283 267 255 248 230 210 197 192 196 198 197 198 195 195 198 192 195 196 185 195 212 205 205 205 199 198 195 192 192 191 191 189 189 191 191 191 188 184 183 185 189 192 195 193 187 183 179 175 177 174 170 167 158 149 158
303 227 244 253 233 205 169 233 295 300 161 131 105 98 104 325 29 18 304 226 216 248 256 242 140 149 202 241 282 301 299 291 265 250 252 248 216 203 194 191 187 179 183 185 194 201 190 192 199 185 185 204 210 208 209 204 201 198 194 194 196 196 193 192 193 193 192 187 181 179 183 190 196 202 201 199 196 189 183 182 181 175 166 158 155 159
297 295 285 261 258 205 173 190 250 225 165 157 151 142 144 121 90 291 270 251 263 257 267 338 148 205 252 261 303 306 309 307 279 246 226 193 179 174 156 140 108 80 105 199 229 219 194 188 208 200 186 194 210 213 213 211 205 201 197 195 197 198 197 196 196 194 192 187 181 179 184 189 193 197 199 202 202 196 191 186 183 179 165 158 163 164
187 316 252 192 246 182 173 200 201 163 149 171 165 139 146 153 149 201 221 204 255 259 290 328 141 172 195 291 306 297 336 359 21 125 132 132 147 146 123 107 96 95 189 223 241 221 199 186 210 226 199 193 208 215 216 215 210 204 199 197 197 199 199 198 197 195 193 190 184 180 185 191 196 200 199 201 199 194 189 183 181 185 179 171 166 162
155 255 253 236 230 157 182 225 163 118 120 209 133 110 153 182 154 150 189 172 189 215 314 323 244 213 212 284 317 343 19 21 40 78 95 101 116 114 101 115 133 195 223 225 242 221 200 181 193 220 210 199 209 215 217 217 214 209 203 200 197 198 200 200 199 198 197 195 190 187 190 196 201 207 210 204 194 186 182 179 183 194 192 182 168 162
129 257 276 313 305 206 202 209 159 154 185 166 127 171 215 173 127 115 191 90 74 143 248 344 303 310 317 308 330 10 30 27 31 45 69 85 96 94 95 129 151 169 70 49 248 206 169 172 176 189 201 203 205 213 223 222 217 215 210 204 198 196 199 202 201 201 201 201 199 196 198 202 206 212 217 206 189 179 177 182 192 203 202 188 174 169
148 257 280 293 273 273 240 166 134 140 145 126 179 203 184 87 94 108 159 14 47 170 267 342 249 292 314 165 327 359 17 17 25 33 47 73 90 90 88 101 103 97 89 25 257 164 130 187 189 181 195 206 199 201 222 228 221 219 218 210 201 197 199 202 206 206 206 206 205 203 203 205 208 214 215 203 189 181 180 188 194 199 205 197 183 174
148 257 288 246 229 293 350 86 18 357 104 140 173 163 110 124 188 104 137 136 114 193 293 324 299 256 194 202 324 342 350 343 11 42 40 46 77 85 86 84 71 79 105 116 175 158 114 228 208 197 200 208 203 198 213 224 221 220 221 214 202 198 200 204 209 211 211 209 207 205 203 204 210 212 207 198 194 190 186 189 191 195 203 198 188 178
117 194 283 274 243 308 1 43 256 296 337 63 115 120 72 132 167 159 148 155 160 170 240 311 334 290 224 245 312 313 326 325 343 54 55 53 72 83 87 90 80 82 104 123 143 148 182 239 229 210 201 207 213 210 215 222 221 221 224 215 201 200 203 208 212 213 214 212 207 204 201 205 211 209 204 201 202 201 194 190 191 194 198 196 192 185
71 117 247 287 325 331 334 314 206 197 175 98 130 171 99 86 134 147 94 95 131 148 167 172 299 271 249 278 306 307 325 321 325 63 65 63 77 91 92 91 93 92 94 109 117 127 203 241 238 212 202 208 217 221 222 221 219 221 224 214 203 201 203 208 211 212 216 215 210 206 205 207 209 204 204 206 206 206 200 193 193 191 191 194 194 191
124 141 197 293 342 318 251 248 207 188 184 166 175 189 174 136 125 126 251 314 102 123 159 159 198 268 267 310 314 320 352 354 33 71 71 62 74 92 95 90 95 97 94 98 105 122 208 239 234 205 204 208 211 218 220 215 214 216 216 211 206 202 202 209 212 210 213 216 214 213 212 210 206 201 203 207 207 206 199 192 189 186 189 194 194 193
144 109 115 259 261 245 259 258 221 182 170 151 168 177 148 128 122 132 189 216 108 94 141 120 130 267 272 56 51 58 74 70 72 84 82 71 69 73 76 86 98 102 101 96 98 127 180 203 201 195 205 210 211 213 212 214 215 210 211 213 211 207 207 213 215 210 211 215 218 220 217 210 205 201 204 207 204 200 194 187 185 183 187 194 193 193
119 81 72 316 295 301 300 303 337 54 87 71 9 36 81 176 144 142 173 172 134 156 145 86 81 264 290 62 83 91 92 84 81 89 88 78 72 72 75 83 89 95 101 103 112 130 145 167 182 191 203 207 208 209 210 215 211 201 207 213 214 214 215 216 216 212 210 214 219 223 218 211 206 202 204 206 202 195 188 182 179 178 181 190 193 191
206 86 97 66 357 341 336 339 347 359 30 53 339 341 351 22 84 116 130 82 114 189 160 126 208 254 211 86 86 89 92 84 72 74 80 76 72 78 85 90 92 96 99 101 109 119 120 129 153 179 194 197 200 204 204 206 204 195 201 209 209 213 216 218 216 213 212 215 220 223 219 213 208 203 202 204 200 192 184 178 176 173 175 187 192 186
152 116 123 125 152 193 222 260 265 294 326 339 342 352 2 26 50 137 128 94 153 199 134 135 195 230 140 113 102 93 87 79 66 61 65 68 71 79 87 93 97 97 96 97 100 103 102 105 112 125 152 178 193 197 192 193 197 195 197 204 204 204 210 215 216 214 215 218 221 222 220 217 210 202 199 202 199 190 182 176 175 173 175 185 187 179
105 56 87 117 141 182 198 223 243 260 25 341 338 351 357 346 339 80 113 144 183 152 95 210 191 151 141 131 114 94 75 71 65 57 58 62 65 73 83 91 96 96 93 94 97 96 94 94 98 102 108 113 116 132 154 171 186 192 194 199 202 206 213 215 213 214 218 222 224 224 222 220 213 203 198 199 195 189 183 179 179 175 174 179 180 178
99 52 53 86 88 182 211 247 274 16 93 63 2 356 354 346 354 69 115 168 154 127 138 237 175 137 133 116 91 80 76 76 68 58 59 64 67 72 79 85 89 92 92 92 93 92 89 87 88 90 96 97 92 91 96 108 135 163 180 193 201 210 219 219 213 215 222 223 223 224 223 221 218 209 202 199 195 190 186 186 186 180 174 176 182 191
111 86 16 80 63 39 23 7 11 90 113 86 49 24 5 360 12 53 97 121 119 136 176 174 145 120 92 76 69 73 86 89 82 77 77 77 78 81 82 81 81 84 87 87 87 86 85 85 85 84 89 94 92 93 93 88 87 89 101 142 181 204 216 215 205 210 219 220 217 221 223 222 222 216 206 201 200 196 192 190 187 181 177 181 196 209
100 75 68 95 67 27 13 10 26 75 106 69 42 32 19 18 31 47 51 39 74 112 133 126 111 80 50 67 78 88 97 95 90 87 84 83 85 86 85 83 80 81 84 85 84 85 85 87 86 82 86 92 94 97 99 97 96 91 87 92 102 147 192 191 186 198 209 213 214 218 218 214 216 216 208 203 207 213 215 209 200 197 196 199 214 223
78 112 137 85 66 360 356 4 12 51 95 73 37 23 18 26 34 34 35 39 53 87 105 103 96 73 58 82 85 88 94 93 87 83 82 85 87 86 84 84 84 84 86 86 86 85 84 85 86 79 80 86 91 96 100 101 104 102 99 100 98 102 129 159 180 197 207 210 210 211 209 204 204 209 214 216 219 227 232 223 212 209 211 214 224 229
71 116 152 75 82 325 344 357 347 19 79 69 36 14 4 15 34 20 7 356 349 130 122 111 109 121 112 97 83 73 78 82 81 79 83 85 83 81 80 83 85 87 88 88 87 86 83 84 86 82 80 85 89 93 97 102 107 109 109 111 112 110 115 131 157 187 209 216 215 210 206 204 202 205 216 223 221 221 224 221 214 212 215 223 231 233
95 124 133 98 113 281 327 332 328 2 49 33 12 356 331 321 2 22 358 345 348 117 131 131 139 132 128 117 94 75 71 73 72 75 81 83 84 84 83 81 83 86 88 89 89 89 89 88 89 88 88 89 90 92 97 101 103 107 113 118 121 121 121 128 143 161 183 206 220 220 213 210 206 206 211 215 215 217 219 216 213 213 221 230 234 237
99 117 123 116 124 168 304 325 348 61 119 259 296 313 309 320 54 70 44 17 40 81 90 85 101 110 114 115 108 98 85 78 79 82 85 86 88 90 88 85 86 88 90 91 92 94 95 92 91 93 91 90 91 92 95 97 99 106 116 123 127 125 124 134 151 163 170 178 191 202 205 207 209 213 215 213 212 215 213 211 212 218 228 235 239 246
118 109 111 106 105 132 321 1 67 151 218 249 290 314 346 38 79 85 64 40 61 96 102 95 95 101 101 100 103 104 99 93 88 82 82 87 89 89 89 87 87 89 91 92 94 95 96 96 95 95 93 93 95 96 96 96 100 106 110 115 125 129 127 131 137 140 153 170 181 191 197 201 209 218 217 211 211 211 209 213 220 225 229 234 241 247
137 129 115 85 78 123 71 44 112 188 266 68 7 340 357 12 40 75 61 38 37 76 106 108 107 107 105 103 104 106 104 99 88 74 75 88 87 83 86 85 84 86 87 88 90 91 93 95 95 94 93 93 94 95 97 99 102 104 101 101 107 112 116 121 118 110 112 121 135 156 177 197 216 223 211 205 207 205 206 213 221 226 229 233 237 241
131 133 124 76 71 138 108 76 122 209 197 122 45 6 10 331 321 28 78 44 20 30 100 119 120 113 110 112 115 113 104 94 79 61 68 83 82 79 83 84 83 83 83 83 84 86 89 92 93 94 94 94 91 89 91 96 101 104 103 100 99 99 100 103 99 92 89 89 91 97 104 115 146 178 193 205 211 210 212 218 223 227 230 231 232 235
94 125 142 124 102 114 103 101 109 146 188 116 38 341 318 311 277 226 121 47 41 71 105 122 122 118 118 120 123 121 105 88 62 38 70 82 83 82 84 85 84 82 79 79 81 85 88 90 92 92 92 93 91 86 85 89 96 101 102 99 100 100 96 93 90 87 85 84 82 81 81 83 92 106 127 161 187 196 207 219 225 229 232 232 231 233
52 63 104 104 88 101 110 114 140 175 170 16 325 308 327 324 267 197 80 43 99 121 126 122 116 122 129 129 130 127 103 87 75 109 95 92 92 90 88 86 84 80 78 77 77 80 82 83 87 92 93 92 88 82 78 77 83 92 94 92 94 98 95 89 84 81 82 85 86 88 87 84 84 89 100 119 138 149 168 196 213 222 228 230 232 234
33 24 51 78 85 92 102 104 117 186 251 348 308 311 324 326 163 105 64 254 144 138 141 135 128 133 135 134 132 110 78 123 148 142 115 103 99 96 90 85 82 79 79 77 72 70 70 73 84 96 97 89 80 78 78 71 70 79 81 80 86 88 85 80 72 65 66 73 82 92 96 94 92 90 92 102 113 120 128 148 170 193 212 218 222 227
22 17 49 98 95 63 75 99 76 310 292 321 320 320 323 325 111 90 245 194 143 138 147 143 139 143 142 135 123 96 99 121 129 129 122 115 109 102 94 87 83 81 78 75 70 64 64 68 77 86 85 72 61 59 62 54 42 47 48 48 60 62 61 65 60 48 48 51 56 67 77 79 82 83 83 87 93 93 90 97 110 116 127 168 203 218
24 14 21 56 59 44 86 107 48 286 328 344 331 324 330 354 173 293 186 155 142 141 147 144 143 147 132 115 112 111 113 119 121 123 124 122 116 107 99 92 85 79 75 74 69 61 60 65 68 68 66 58 48 42 38 27 17 25 23 15 24 31 33 37 35 24 23 25 23 26 31 31 31 35 38 37 41 55 49 41 59 66 58 66 97 203
39 36 25 28 26 39 61 57 66 181 319 343 338 324 355 27 227 156 128 140 145 147 148 144 142 139 126 118 117 119 121 122 122 123 122 119 115 110 104 97 88 81 76 73 68 59 55 61 63 62 60 56 49 43 35 26 24 25 21 22 32 29 21 19 17 10 6 3 1 1 359 357 356 355 352 349 341 324 305 302 306 300 291 286 276 270
16 59 141 244 341 65 74 53 70 279 321 341 349 8 41 21 160 148 132 137 143 147 148 142 134 135 131 127 125 126 126 125 124 123 121 117 115 111 106 98 89 82 74 68 65 58 54 57 58 57 58 55 50 44 36 30 29 25 22 28 31 23 12 7 1 354 349 344 344 346 343 342 342 337 332 330 326 319 311 303 297 292 288 284 280 278
15 97 119 85 54 86 89 63 19 3 2 17 48 71 70 75 110 135 131 127 131 142 149 140 134 137 136 132 131 130 127 125 124 122 120 117 112 106 99 92 83 77 70 65 62 54 48 52 51 48 48 47 43 38 32 27 24 18 17 20 14 2 356 351 342 336 333 329 328 328 327 328 328 327 325 324 320 317 314 309 304 299 294 289 286 284
91 122 112 91 97 95 66 44 33 39 45 55 68 75 81 88 99 111 111 108 115 132 140 137 136 139 138 135 133 129 126 126 124 122 121 115 107 97 89 83 77 72 66 60 56 48 44 44 43 39 39 37 32 27 21 15 10 8 6 3 354 345 343 340 334 330 326 322 319 316 313 314 314 315 317 316 315 313 311 309 306 303 300 297 294 291
25 62 77 77 95 99 58 26 25 53 65 70 77 81 84 87 92 99 99 97 106 118 125 130 134 135 134 132 128 125 125 126 124 121 117 109 101 93 83 79 78 75 68 60 54 48 41 37 32 26 23 18 12 9 5 0 358 358 357 352 347 344 340 336 334 332 329 326 321 314 310 308 306 306 306 306 306 306 305 304 303 301 298 296 294 293
26 62 72 63 50 68 89 73 72 80 82 84 88 89 89 90 91 93 94 97 102 107 110 117 122 124 124 122 121 123 126 126 124 120 113 104 98 92 85 85 84 80 75 67 57 44 31 22 17 10 3 358 356 354 352 351 352 353 353 352 351 350 348 344 342 340 337 336 334 331 331 328 321 316 312 310 307 303 299 298 298 298 298 297 294 293
337 27 43 82 90 82 93 121 106 89 77 80 92 96 96 96 95 92 92 94 95 97 100 103 105 107 110 110 112 119 123 124 121 115 107 99 90 81 77 79 79 75 69 59 45 28 15 7 2 357 353 349 348 347 346 347 348 350 352 352 351 350 349 348 347 346 344 344 344 345 347 348 346 344 342 340 336 326 315 308 304 303 305 305 304 302
31 89 75 90 107 116 180 176 150 111 80 91 104 106 103 99 95 92 92 92 89 91 94 94 95 97 100 106 114 122 125 128 125 118 110 101 83 70 68 69 68 64 54 40 26 11 2 358 355 352 349 345 344 345 344 345 347 350 351 349 349 350 350 350 350 351 352 354 359 6 12 14 14 17 18 19 24 23 14 359 346 340 340 337 329 323
70 156 163 128 134 171 189 177 152 121 120 129 126 123 120 111 100 97 98 98 97 96 94 96 104 109 111 119 129 130 126 132 135 130 118 106 88 75 75 75 67 53 40 26 12 359 354 354 354 353 352 350 348 347 347 347 350 350 349 348 349 350 352 355 358 1 6 16 29 42 49 50 48 47 45 42 41 43 43 38 23 8 5 4 356 347